Location: Nashville
(36.1660°N, 86.7840°W)
Time: 04:18:49
(UTC-05:00)

ITUPSAT 1 - Visible Passes

Search period start: 16 May 2022 00:00
Search period end: 26 May 2022 00:00
Orbit: 700 x 712 km, 98.6° (Epoch: 15 May)

Date Brightness Start Highest point End Pass type
(mag) Time Alt. Az. Time Alt. Az. Time Alt. Az.
16 May ? 21:29:18 10° N 21:33:52 48° WNW 21:38:24 10° SW visible
17 May ? 20:35:30 10° NNE 20:40:02 43° E 20:44:31 10° S visible
17 May ? 22:14:20 10° NNW 22:17:26 18° WNW 22:20:31 10° WSW visible
18 May ? 21:19:14 10° N 21:23:55 62° WNW 21:28:35 10° SSW visible
19 May ? 20:25:42 10° NNE 20:30:00 33° E 20:34:17 10° SSE visible
19 May ? 22:03:56 10° NNW 22:07:33 22° WNW 22:11:09 10° WSW visible
20 May ? 21:09:12 10° N 21:13:58 81° WNW 21:18:42 10° SSW visible
21 May ? 20:16:00 10° NE 20:19:58 26° E 20:23:55 10° SSE visible
21 May ? 21:53:39 10° NNW 21:57:39 28° WNW 22:01:39 10° SW visible
22 May ? 20:59:13 10° NNE 21:03:59 79° ESE 21:08:43 10° S visible
23 May ? 21:43:26 10° N 21:47:44 35° WNW 21:52:01 10° SW visible
24 May ? 20:49:17 10° NNE 20:53:59 60° E 20:58:39 10° S visible
24 May ? 22:29:04 10° NW 22:31:12 13° WNW 22:33:21 10° W visible
25 May ? 21:33:16 10° N 21:37:48 45° WNW 21:42:17 10° SW visible
